Year,Month,Day,Hour,Minute,Value (Times are PST for temperature in C)
2007,04,06,00,00,13.10
2007,04,06,00,01,13.10
2007,04,06,00,02,13.00
2007,04,06,00,03,13.00
2007,04,06,00,04,13.00
2007,04,06,00,05,13.00
2007,04,06,00,06,13.00
2007,04,06,00,07,13.00
2007,04,06,00,08,13.00
2007,04,06,00,09,12.90
2007,04,06,00,10,12.90
2007,04,06,00,11,12.90
2007,04,06,00,12,12.90
2007,04,06,00,13,12.90
2007,04,06,00,14,12.90
2007,04,06,00,15,12.90
2007,04,06,00,16,12.80
2007,04,06,00,17,12.80
2007,04,06,00,18,12.80
2007,04,06,00,19,12.80
2007,04,06,00,20,12.90
2007,04,06,00,21,12.90
2007,04,06,00,22,12.90
2007,04,06,00,23,13.00
2007,04,06,00,24,13.00
2007,04,06,00,25,13.00
2007,04,06,00,26,13.00
2007,04,06,00,27,13.00
2007,04,06,00,28,13.00
2007,04,06,00,29,13.00
2007,04,06,00,30,13.10
2007,04,06,00,31,13.10
2007,04,06,00,32,13.10
2007,04,06,00,33,13.20
2007,04,06,00,34,13.20
2007,04,06,00,35,13.30
2007,04,06,00,36,13.30
2007,04,06,00,37,13.30
2007,04,06,00,38,13.30
2007,04,06,00,39,13.30
2007,04,06,00,40,13.30
2007,04,06,00,41,13.30
2007,04,06,00,42,13.30
2007,04,06,00,43,13.30
2007,04,06,00,44,13.30
2007,04,06,00,45,13.30
2007,04,06,00,46,13.30
2007,04,06,00,47,13.30
2007,04,06,00,48,13.30
2007,04,06,00,49,13.30
2007,04,06,00,50,13.30
2007,04,06,00,51,13.30
2007,04,06,00,52,13.30
2007,04,06,00,53,13.30
2007,04,06,00,54,13.30
2007,04,06,00,55,13.30
2007,04,06,00,56,13.30
2007,04,06,00,57,13.30
2007,04,06,00,58,13.40
2007,04,06,00,59,13.40
2007,04,06,01,00,13.30
2007,04,06,01,01,13.40
2007,04,06,01,02,13.30
2007,04,06,01,03,13.30
2007,04,06,01,04,13.30
2007,04,06,01,05,13.30
2007,04,06,01,06,13.30
2007,04,06,01,07,13.30
2007,04,06,01,08,13.30
2007,04,06,01,09,13.30
2007,04,06,01,10,13.30
2007,04,06,01,11,13.30
2007,04,06,01,12,13.30
2007,04,06,01,13,13.30
2007,04,06,01,14,13.30
2007,04,06,01,15,13.30
2007,04,06,01,16,13.30
2007,04,06,01,17,13.30
2007,04,06,01,18,13.30
2007,04,06,01,19,13.30
2007,04,06,01,20,13.30
2007,04,06,01,21,13.30
2007,04,06,01,22,13.30
2007,04,06,01,23,13.30
2007,04,06,01,24,13.40
2007,04,06,01,25,13.40
2007,04,06,01,26,13.40
2007,04,06,01,27,13.40
2007,04,06,01,28,13.40
2007,04,06,01,29,13.40
2007,04,06,01,30,13.40
2007,04,06,01,31,13.30
2007,04,06,01,32,13.30
2007,04,06,01,33,13.30
2007,04,06,01,34,13.30
2007,04,06,01,35,13.30
2007,04,06,01,36,13.30
2007,04,06,01,37,13.30
2007,04,06,01,38,13.30
2007,04,06,01,39,13.30
2007,04,06,01,40,13.30
2007,04,06,01,41,13.30
2007,04,06,01,42,13.30
2007,04,06,01,43,13.20
2007,04,06,01,44,13.20
2007,04,06,01,45,13.20
2007,04,06,01,46,13.20
2007,04,06,01,47,13.10
2007,04,06,01,48,13.10
2007,04,06,01,49,13.10
2007,04,06,01,50,13.10
2007,04,06,01,51,13.10
2007,04,06,01,52,13.10
2007,04,06,01,53,13.10
2007,04,06,01,54,13.10
2007,04,06,01,55,13.10
2007,04,06,01,56,13.10
2007,04,06,01,57,13.10
2007,04,06,01,58,13.10
2007,04,06,01,59,13.00
2007,04,06,02,00,13.00
2007,04,06,02,01,13.00
2007,04,06,02,02,13.00
2007,04,06,02,03,13.00
2007,04,06,02,04,13.00
2007,04,06,02,05,12.90
2007,04,06,02,06,12.90
2007,04,06,02,07,12.90
2007,04,06,02,08,12.90
2007,04,06,02,09,12.90
2007,04,06,02,10,12.90
2007,04,06,02,11,12.90
2007,04,06,02,12,12.80
2007,04,06,02,13,12.80
2007,04,06,02,14,12.80
2007,04,06,02,15,12.80
2007,04,06,02,16,12.80
2007,04,06,02,17,12.80
2007,04,06,02,18,12.80
2007,04,06,02,19,12.80
2007,04,06,02,20,12.80
2007,04,06,02,21,12.80
2007,04,06,02,22,12.80
2007,04,06,02,23,12.80
2007,04,06,02,24,12.80
2007,04,06,02,25,12.80
2007,04,06,02,26,12.80
2007,04,06,02,27,12.80
2007,04,06,02,28,12.80
2007,04,06,02,29,12.80
2007,04,06,02,30,12.80
2007,04,06,02,31,12.80
2007,04,06,02,32,12.80
2007,04,06,02,33,12.80
2007,04,06,02,34,12.80
2007,04,06,02,35,12.80
2007,04,06,02,36,12.80
2007,04,06,02,37,12.80
2007,04,06,02,38,12.80
2007,04,06,02,39,12.80
2007,04,06,02,40,12.80
2007,04,06,02,41,12.80
2007,04,06,02,42,12.80
2007,04,06,02,43,12.80
2007,04,06,02,44,12.80
2007,04,06,02,45,12.80
2007,04,06,02,46,12.80
2007,04,06,02,47,12.80
2007,04,06,02,48,12.80
2007,04,06,02,49,12.80
2007,04,06,02,50,12.80
2007,04,06,02,51,12.80
2007,04,06,02,52,12.80
2007,04,06,02,53,12.80
2007,04,06,02,54,12.70
2007,04,06,02,55,12.70
2007,04,06,02,56,12.70
2007,04,06,02,57,12.70
2007,04,06,02,58,12.70
2007,04,06,02,59,12.60
2007,04,06,03,00,12.60
2007,04,06,03,01,12.60
2007,04,06,03,02,12.60
2007,04,06,03,03,12.60
2007,04,06,03,04,12.60
2007,04,06,03,05,12.60
2007,04,06,03,06,12.60
2007,04,06,03,07,12.60
2007,04,06,03,08,12.60
2007,04,06,03,09,12.60
2007,04,06,03,10,12.60
2007,04,06,03,11,12.60
2007,04,06,03,12,12.60
2007,04,06,03,13,12.60
2007,04,06,03,14,12.60
2007,04,06,03,15,12.60
2007,04,06,03,16,12.60
2007,04,06,03,17,12.60
2007,04,06,03,18,12.60
2007,04,06,03,19,12.60
2007,04,06,03,20,12.60
2007,04,06,03,21,12.60
2007,04,06,03,22,12.60
2007,04,06,03,23,12.60
2007,04,06,03,24,12.60
2007,04,06,03,25,12.60
2007,04,06,03,26,12.60
2007,04,06,03,27,12.60
2007,04,06,03,28,12.60
2007,04,06,03,29,12.60
2007,04,06,03,30,12.60
2007,04,06,03,31,12.60
2007,04,06,03,32,12.60
2007,04,06,03,33,12.60
2007,04,06,03,34,12.60
2007,04,06,03,35,12.60
2007,04,06,03,36,12.50
2007,04,06,03,37,12.50
2007,04,06,03,38,12.50
2007,04,06,03,39,12.50
2007,04,06,03,40,12.50
2007,04,06,03,41,12.50
2007,04,06,03,42,12.50
2007,04,06,03,43,12.50
2007,04,06,03,44,12.50
2007,04,06,03,45,12.50
2007,04,06,03,46,12.50
2007,04,06,03,47,12.40
2007,04,06,03,48,12.40
2007,04,06,03,49,12.40
2007,04,06,03,50,12.30
2007,04,06,03,51,12.30
2007,04,06,03,52,12.30
2007,04,06,03,53,12.30
2007,04,06,03,54,12.30
2007,04,06,03,55,12.30
2007,04,06,03,56,12.30
2007,04,06,03,57,12.30
2007,04,06,03,58,12.30
2007,04,06,03,59,12.30
2007,04,06,04,00,12.30
2007,04,06,04,01,12.30
2007,04,06,04,02,12.30
2007,04,06,04,03,12.30
2007,04,06,04,04,12.30
2007,04,06,04,05,12.30
2007,04,06,04,06,12.30
2007,04,06,04,07,12.30
2007,04,06,04,08,12.30
2007,04,06,04,09,12.30
2007,04,06,04,10,12.30
2007,04,06,04,11,12.30
2007,04,06,04,12,12.30
2007,04,06,04,13,12.30
2007,04,06,04,14,12.30
2007,04,06,04,15,12.30
2007,04,06,04,16,12.30
2007,04,06,04,17,12.30
2007,04,06,04,18,12.30
2007,04,06,04,19,12.30
2007,04,06,04,20,12.30
2007,04,06,04,21,12.30
2007,04,06,04,22,12.30
2007,04,06,04,23,12.30
2007,04,06,04,24,12.30
2007,04,06,04,25,12.30
2007,04,06,04,26,12.30
2007,04,06,04,27,12.30
2007,04,06,04,28,12.30
2007,04,06,04,29,12.30
2007,04,06,04,30,12.30
2007,04,06,04,31,12.30
2007,04,06,04,32,12.30
2007,04,06,04,33,12.30
2007,04,06,04,34,12.30
2007,04,06,04,35,12.30
2007,04,06,04,36,12.30
2007,04,06,04,37,12.30
2007,04,06,04,38,12.20
2007,04,06,04,39,12.20
2007,04,06,04,40,12.20
2007,04,06,04,41,12.10
2007,04,06,04,42,12.10
2007,04,06,04,43,12.00
2007,04,06,04,44,12.00
2007,04,06,04,45,11.90
2007,04,06,04,46,11.90
2007,04,06,04,47,11.80
2007,04,06,04,48,11.80
2007,04,06,04,49,11.80
2007,04,06,04,50,11.80
2007,04,06,04,51,11.80
2007,04,06,04,52,11.80
2007,04,06,04,53,11.80
2007,04,06,04,54,11.80
2007,04,06,04,55,11.80
2007,04,06,04,56,11.80
2007,04,06,04,57,11.80
2007,04,06,04,58,11.80
2007,04,06,04,59,11.80
2007,04,06,05,00,11.70
2007,04,06,05,01,11.70
2007,04,06,05,02,11.70
2007,04,06,05,03,11.70
2007,04,06,05,04,11.70
2007,04,06,05,05,11.70
2007,04,06,05,06,11.70
2007,04,06,05,07,11.70
2007,04,06,05,08,11.70
2007,04,06,05,09,11.70
2007,04,06,05,10,11.70
2007,04,06,05,11,11.70
2007,04,06,05,12,11.70
2007,04,06,05,13,11.70
2007,04,06,05,14,11.70
2007,04,06,05,15,11.70
2007,04,06,05,16,11.80
2007,04,06,05,17,11.80
2007,04,06,05,18,11.80
2007,04,06,05,19,11.80
2007,04,06,05,20,11.80
2007,04,06,05,21,11.80
2007,04,06,05,22,11.80
2007,04,06,05,23,11.80
2007,04,06,05,24,11.80
2007,04,06,05,25,11.90
2007,04,06,05,26,11.90
2007,04,06,05,27,11.90
2007,04,06,05,28,11.90
2007,04,06,05,29,11.90
2007,04,06,05,30,11.90
2007,04,06,05,31,12.00
2007,04,06,05,32,12.00
2007,04,06,05,33,12.00
2007,04,06,05,34,11.90
2007,04,06,05,35,11.90
2007,04,06,05,36,11.90
2007,04,06,05,37,11.90
2007,04,06,05,38,11.90
2007,04,06,05,39,11.90
2007,04,06,05,40,11.90
2007,04,06,05,41,11.90
2007,04,06,05,42,11.90
2007,04,06,05,43,11.90
2007,04,06,05,44,11.80
2007,04,06,05,45,11.80
2007,04,06,05,46,11.80
2007,04,06,05,47,11.80
2007,04,06,05,48,11.80
2007,04,06,05,49,11.80
2007,04,06,05,50,11.80
2007,04,06,05,51,11.80
2007,04,06,05,52,11.70
2007,04,06,05,53,11.70
2007,04,06,05,54,11.70
2007,04,06,05,55,11.70
2007,04,06,05,56,11.70
2007,04,06,05,57,11.60
2007,04,06,05,58,11.60
2007,04,06,05,59,11.60
2007,04,06,06,00,11.60
2007,04,06,06,01,11.60
2007,04,06,06,02,11.60
2007,04,06,06,03,11.60
2007,04,06,06,04,11.60
2007,04,06,06,05,11.60
2007,04,06,06,06,11.60
2007,04,06,06,07,11.60
2007,04,06,06,08,11.60
2007,04,06,06,09,11.60
2007,04,06,06,10,11.60
2007,04,06,06,11,11.60
2007,04,06,06,12,11.70
2007,04,06,06,13,11.70
2007,04,06,06,14,11.70
2007,04,06,06,15,11.70
2007,04,06,06,16,11.70
2007,04,06,06,17,11.70
2007,04,06,06,18,11.70
2007,04,06,06,19,11.60
2007,04,06,06,20,11.70
2007,04,06,06,21,11.70
2007,04,06,06,22,11.70
2007,04,06,06,23,11.70
2007,04,06,06,24,11.70
2007,04,06,06,25,11.70
2007,04,06,06,26,11.70
2007,04,06,06,27,11.70
2007,04,06,06,28,11.60
2007,04,06,06,29,11.60
2007,04,06,06,30,11.60
2007,04,06,06,31,11.60
2007,04,06,06,32,11.60
2007,04,06,06,33,11.60
2007,04,06,06,34,11.60
2007,04,06,06,35,11.60
2007,04,06,06,36,11.60
2007,04,06,06,37,11.60
2007,04,06,06,38,11.60
2007,04,06,06,39,11.60
2007,04,06,06,40,11.60
2007,04,06,06,41,11.60
2007,04,06,06,42,11.60
2007,04,06,06,43,11.60
2007,04,06,06,44,11.60
2007,04,06,06,45,11.60
2007,04,06,06,46,11.70
2007,04,06,06,47,11.70
2007,04,06,06,48,11.70
2007,04,06,06,49,11.70
2007,04,06,06,50,11.70
2007,04,06,06,51,11.80
2007,04,06,06,52,11.80
2007,04,06,06,53,11.80
2007,04,06,06,54,11.80
2007,04,06,06,55,11.80
2007,04,06,06,56,11.90
2007,04,06,06,57,11.90
2007,04,06,06,58,11.90
2007,04,06,06,59,11.90
2007,04,06,07,00,11.90
2007,04,06,07,01,12.00
2007,04,06,07,02,12.00
2007,04,06,07,03,12.10
2007,04,06,07,04,12.10
2007,04,06,07,05,12.10
2007,04,06,07,06,12.10
2007,04,06,07,07,12.10
2007,04,06,07,08,12.00
2007,04,06,07,09,12.00
2007,04,06,07,10,12.00
2007,04,06,07,11,11.90
2007,04,06,07,12,11.90
2007,04,06,07,13,11.90
2007,04,06,07,14,11.90
2007,04,06,07,15,11.90
2007,04,06,07,16,11.90
2007,04,06,07,17,11.90
2007,04,06,07,18,11.90
2007,04,06,07,19,11.90
2007,04,06,07,20,11.90
2007,04,06,07,21,11.90
2007,04,06,07,22,11.90
2007,04,06,07,23,11.90
2007,04,06,07,24,12.00
2007,04,06,07,25,12.00
2007,04,06,07,26,12.10
2007,04,06,07,27,12.10
2007,04,06,07,28,12.10
2007,04,06,07,29,12.20
2007,04,06,07,30,12.20
2007,04,06,07,31,12.30
2007,04,06,07,32,12.30
2007,04,06,07,33,12.30
2007,04,06,07,34,12.40
2007,04,06,07,35,12.50
2007,04,06,07,36,12.60
2007,04,06,07,37,12.60
2007,04,06,07,38,12.70
2007,04,06,07,39,12.80
2007,04,06,07,40,12.90
2007,04,06,07,41,12.90
2007,04,06,07,42,13.00
2007,04,06,07,43,13.00
2007,04,06,07,44,13.10
2007,04,06,07,45,13.10
2007,04,06,07,46,13.20
2007,04,06,07,47,13.20
2007,04,06,07,48,13.20
2007,04,06,07,49,13.20
2007,04,06,07,50,13.30
2007,04,06,07,51,13.30
2007,04,06,07,52,13.30
2007,04,06,07,53,13.30
2007,04,06,07,54,13.30
2007,04,06,07,55,13.30
2007,04,06,07,56,13.40
2007,04,06,07,57,13.40
2007,04,06,07,58,13.50
2007,04,06,07,59,13.50
2007,04,06,08,00,13.60
2007,04,06,08,01,13.70
2007,04,06,08,02,13.70
2007,04,06,08,03,13.70
2007,04,06,08,04,13.70
2007,04,06,08,05,13.70
2007,04,06,08,06,13.70
2007,04,06,08,07,13.80
2007,04,06,08,08,13.70
2007,04,06,08,09,13.70
2007,04,06,08,10,13.70
2007,04,06,08,11,13.70
2007,04,06,08,12,13.70
2007,04,06,08,13,13.70
2007,04,06,08,14,13.70
2007,04,06,08,15,13.70
2007,04,06,08,16,13.70
2007,04,06,08,17,13.70
2007,04,06,08,18,13.70
2007,04,06,08,19,13.70
2007,04,06,08,20,13.70
2007,04,06,08,21,13.70
2007,04,06,08,22,13.80
2007,04,06,08,23,13.90
2007,04,06,08,24,14.00
2007,04,06,08,25,14.10
2007,04,06,08,26,14.20
2007,04,06,08,27,14.20
2007,04,06,08,28,14.30
2007,04,06,08,29,14.40
2007,04,06,08,30,14.50
2007,04,06,08,31,14.50
2007,04,06,08,32,14.60
2007,04,06,08,33,14.60
2007,04,06,08,34,14.60
2007,04,06,08,35,14.70
2007,04,06,08,36,14.80
2007,04,06,08,37,14.80
2007,04,06,08,38,14.80
2007,04,06,08,39,14.90
2007,04,06,08,40,14.90
2007,04,06,08,41,14.80
2007,04,06,08,42,14.90
2007,04,06,08,43,14.90
2007,04,06,08,44,14.90
2007,04,06,08,45,15.00
2007,04,06,08,46,14.90
2007,04,06,08,47,14.90
2007,04,06,08,48,14.90
2007,04,06,08,49,14.90
2007,04,06,08,50,15.00
2007,04,06,08,51,15.00
2007,04,06,08,52,15.10
2007,04,06,08,53,15.10
2007,04,06,08,54,15.10
2007,04,06,08,55,15.20
2007,04,06,08,56,15.20
2007,04,06,08,57,15.30
2007,04,06,08,58,15.30
2007,04,06,08,59,15.40
2007,04,06,09,00,15.50
2007,04,06,09,01,15.50
2007,04,06,09,02,15.60
2007,04,06,09,03,15.50
2007,04,06,09,04,15.50
2007,04,06,09,05,15.50
2007,04,06,09,06,15.40
2007,04,06,09,07,15.40
2007,04,06,09,08,15.30
2007,04,06,09,09,15.30
2007,04,06,09,10,15.30
2007,04,06,09,11,15.30
2007,04,06,09,12,15.30
2007,04,06,09,13,15.20
2007,04,06,09,14,15.20
2007,04,06,09,15,15.20
2007,04,06,09,16,15.10
2007,04,06,09,17,15.10
2007,04,06,09,18,15.10
2007,04,06,09,19,15.20
2007,04,06,09,20,15.20
2007,04,06,09,21,15.30
2007,04,06,09,22,15.30
2007,04,06,09,23,15.40
2007,04,06,09,24,15.50
2007,04,06,09,25,15.60
2007,04,06,09,26,15.60
2007,04,06,09,27,15.70
2007,04,06,09,28,15.70
2007,04,06,09,29,15.70
2007,04,06,09,30,15.80
2007,04,06,09,31,15.80
2007,04,06,09,32,15.70
2007,04,06,09,33,15.70
2007,04,06,09,34,15.60
2007,04,06,09,35,15.60
2007,04,06,09,36,15.60
2007,04,06,09,37,15.60
2007,04,06,09,38,15.60
2007,04,06,09,39,15.60
2007,04,06,09,40,15.70
2007,04,06,09,41,15.70
2007,04,06,09,42,15.80
2007,04,06,09,43,15.80
2007,04,06,09,44,15.90
2007,04,06,09,45,16.00
2007,04,06,09,46,16.10
2007,04,06,09,47,16.10
2007,04,06,09,48,16.10
2007,04,06,09,49,16.20
2007,04,06,09,50,16.30
2007,04,06,09,51,16.30
2007,04,06,09,52,16.30
2007,04,06,09,53,16.20
2007,04,06,09,54,16.10
2007,04,06,09,55,16.10
2007,04,06,09,56,16.10
2007,04,06,09,57,16.10
2007,04,06,09,58,15.90
2007,04,06,09,59,15.90
2007,04,06,10,00,15.90
2007,04,06,10,01,15.90
2007,04,06,10,02,15.90
2007,04,06,10,03,15.90
2007,04,06,10,04,15.90
2007,04,06,10,05,15.90
2007,04,06,10,06,15.90
2007,04,06,10,07,15.90
2007,04,06,10,08,15.80
2007,04,06,10,09,15.80
2007,04,06,10,10,15.80
2007,04,06,10,11,15.90
2007,04,06,10,12,15.90
2007,04,06,10,13,15.90
2007,04,06,10,14,15.90
2007,04,06,10,15,16.00
2007,04,06,10,16,16.10
2007,04,06,10,17,16.10
2007,04,06,10,18,16.00
2007,04,06,10,19,16.10
2007,04,06,10,20,16.10
2007,04,06,10,21,16.10
2007,04,06,10,22,16.10
2007,04,06,10,23,16.10
2007,04,06,10,24,16.00
2007,04,06,10,25,15.90
2007,04,06,10,26,15.90
2007,04,06,10,27,15.90
2007,04,06,10,28,15.90
2007,04,06,10,29,15.90
2007,04,06,10,30,15.90
2007,04,06,10,31,15.90
2007,04,06,10,32,15.90
2007,04,06,10,33,15.90
2007,04,06,10,34,15.80
2007,04,06,10,35,15.80
2007,04,06,10,36,15.80
2007,04,06,10,37,15.70
2007,04,06,10,38,15.70
2007,04,06,10,39,15.80
2007,04,06,10,40,15.80
2007,04,06,10,41,15.80
2007,04,06,10,42,15.90
2007,04,06,10,43,16.00
2007,04,06,10,44,16.10
2007,04,06,10,45,16.10
2007,04,06,10,46,16.10
2007,04,06,10,47,16.10
2007,04,06,10,48,16.10
2007,04,06,10,49,16.10
2007,04,06,10,50,16.10
2007,04,06,10,51,16.10
2007,04,06,10,52,16.20
2007,04,06,10,53,16.30
2007,04,06,10,54,16.40
2007,04,06,10,55,16.40
2007,04,06,10,56,16.40
2007,04,06,10,57,16.40
2007,04,06,10,58,16.40
2007,04,06,10,59,16.40
2007,04,06,11,00,16.40
2007,04,06,11,01,16.40
2007,04,06,11,02,16.40
2007,04,06,11,03,16.40
2007,04,06,11,04,16.40
2007,04,06,11,05,16.40
2007,04,06,11,06,16.40
2007,04,06,11,07,16.40
2007,04,06,11,08,16.40
2007,04,06,11,09,16.40
2007,04,06,11,10,16.50
2007,04,06,11,11,16.60
2007,04,06,11,12,16.60
2007,04,06,11,13,16.60
2007,04,06,11,14,16.60
2007,04,06,11,15,16.70
2007,04,06,11,16,16.70
2007,04,06,11,17,16.70
2007,04,06,11,18,16.70
2007,04,06,11,19,16.70
2007,04,06,11,20,16.70
2007,04,06,11,21,16.70
2007,04,06,11,22,16.80
2007,04,06,11,23,16.80
2007,04,06,11,24,16.80
2007,04,06,11,25,16.80
2007,04,06,11,26,16.80
2007,04,06,11,27,16.80
2007,04,06,11,28,16.90
2007,04,06,11,29,16.90
2007,04,06,11,30,17.00
2007,04,06,11,31,17.00
2007,04,06,11,32,17.10
2007,04,06,11,33,17.10
2007,04,06,11,34,17.20
2007,04,06,11,35,17.30
2007,04,06,11,36,17.30
2007,04,06,11,37,17.30
2007,04,06,11,38,17.30
2007,04,06,11,39,17.50
2007,04,06,11,40,17.60
2007,04,06,11,41,17.60
2007,04,06,11,42,17.60
2007,04,06,11,43,17.70
2007,04,06,11,44,17.70
2007,04,06,11,45,17.80
2007,04,06,11,46,17.80
2007,04,06,11,47,17.90
2007,04,06,11,48,18.00
2007,04,06,11,49,18.10
2007,04,06,11,50,18.10
2007,04,06,11,51,18.10
2007,04,06,11,52,18.10
2007,04,06,11,53,18.00
2007,04,06,11,54,17.90
2007,04,06,11,55,17.90
2007,04,06,11,56,17.90
2007,04,06,11,57,17.90
2007,04,06,11,58,17.90
2007,04,06,11,59,17.90
2007,04,06,12,00,17.90
2007,04,06,12,01,17.90
2007,04,06,12,02,17.90
2007,04,06,12,03,17.90
2007,04,06,12,04,18.00
2007,04,06,12,05,18.10
2007,04,06,12,06,18.20
2007,04,06,12,07,18.10
2007,04,06,12,08,18.10
2007,04,06,12,09,18.20
2007,04,06,12,10,18.20
2007,04,06,12,11,18.20
2007,04,06,12,12,18.20
2007,04,06,12,13,18.20
2007,04,06,12,14,18.20
2007,04,06,12,15,18.20
2007,04,06,12,16,18.20
2007,04,06,12,17,18.20
2007,04,06,12,18,18.20
2007,04,06,12,19,18.10
2007,04,06,12,20,18.10
2007,04,06,12,21,18.10
2007,04,06,12,22,18.10
2007,04,06,12,23,18.10
2007,04,06,12,24,18.20
2007,04,06,12,25,18.20
2007,04,06,12,26,18.20
2007,04,06,12,27,18.10
2007,04,06,12,28,18.10
2007,04,06,12,29,18.10
2007,04,06,12,30,18.20
2007,04,06,12,31,18.20
2007,04,06,12,32,18.30
2007,04,06,12,33,18.40
2007,04,06,12,34,18.50
2007,04,06,12,35,18.50
2007,04,06,12,36,18.60
2007,04,06,12,37,18.50
2007,04,06,12,38,18.50
2007,04,06,12,39,18.50
2007,04,06,12,40,18.40
2007,04,06,12,41,18.40
2007,04,06,12,42,18.40
2007,04,06,12,43,18.40
2007,04,06,12,44,18.50
2007,04,06,12,45,18.50
2007,04,06,12,46,18.60
2007,04,06,12,47,18.60
2007,04,06,12,48,18.60
2007,04,06,12,49,18.50
2007,04,06,12,50,18.50
2007,04,06,12,51,18.60
2007,04,06,12,52,18.60
2007,04,06,12,53,18.50
2007,04,06,12,54,18.60
2007,04,06,12,55,18.60
2007,04,06,12,56,18.60
2007,04,06,12,57,18.70
2007,04,06,12,58,18.70
2007,04,06,12,59,18.60
2007,04,06,13,00,18.60
2007,04,06,13,01,18.50
2007,04,06,13,02,18.50
2007,04,06,13,03,18.50
2007,04,06,13,04,18.50
2007,04,06,13,05,18.50
2007,04,06,13,06,18.40
2007,04,06,13,07,18.40
2007,04,06,13,08,18.50
2007,04,06,13,09,18.50
2007,04,06,13,10,18.50
2007,04,06,13,11,18.50
2007,04,06,13,12,18.60
2007,04,06,13,13,18.60
2007,04,06,13,14,18.60
2007,04,06,13,15,18.50
2007,04,06,13,16,18.50
2007,04,06,13,17,18.40
2007,04,06,13,18,18.50
2007,04,06,13,19,18.50
2007,04,06,13,20,18.50
2007,04,06,13,21,18.60
2007,04,06,13,22,18.60
2007,04,06,13,23,18.60
2007,04,06,13,24,18.70
2007,04,06,13,25,18.70
2007,04,06,13,26,18.80
2007,04,06,13,27,18.80
2007,04,06,13,28,18.90
2007,04,06,13,29,18.90
2007,04,06,13,30,18.90
2007,04,06,13,31,18.90
2007,04,06,13,32,18.90
2007,04,06,13,33,18.90
2007,04,06,13,34,19.00
2007,04,06,13,35,19.10
2007,04,06,13,36,19.10
2007,04,06,13,37,19.10
2007,04,06,13,38,19.10
2007,04,06,13,39,19.10
2007,04,06,13,40,19.10
2007,04,06,13,41,19.20
2007,04,06,13,42,19.20
2007,04,06,13,43,19.10
2007,04,06,13,44,19.10
2007,04,06,13,45,19.10
2007,04,06,13,46,19.10
2007,04,06,13,47,19.00
2007,04,06,13,48,18.90
2007,04,06,13,49,18.90
2007,04,06,13,50,18.90
2007,04,06,13,51,18.90
2007,04,06,13,52,18.90
2007,04,06,13,53,18.90
2007,04,06,13,54,18.90
2007,04,06,13,55,18.90
2007,04,06,13,56,18.90
2007,04,06,13,57,18.90
2007,04,06,13,58,19.00
2007,04,06,13,59,19.10
2007,04,06,14,00,19.10
2007,04,06,14,01,19.10
2007,04,06,14,02,19.00
2007,04,06,14,03,18.90
2007,04,06,14,04,18.90
2007,04,06,14,05,18.90
2007,04,06,14,06,18.90
2007,04,06,14,07,18.90
2007,04,06,14,08,19.00
2007,04,06,14,09,19.10
2007,04,06,14,10,19.10
2007,04,06,14,11,19.20
2007,04,06,14,12,19.20
2007,04,06,14,13,19.20
2007,04,06,14,14,19.20
2007,04,06,14,15,19.20
2007,04,06,14,16,19.20
2007,04,06,14,17,19.20
2007,04,06,14,18,19.20
2007,04,06,14,19,19.20
2007,04,06,14,20,19.20
2007,04,06,14,21,19.30
2007,04,06,14,22,19.30
2007,04,06,14,23,19.30
2007,04,06,14,24,19.30
2007,04,06,14,25,19.30
2007,04,06,14,26,19.30
2007,04,06,14,27,19.30
2007,04,06,14,28,19.30
2007,04,06,14,29,19.40
2007,04,06,14,30,19.50
2007,04,06,14,31,19.60
2007,04,06,14,32,19.70
2007,04,06,14,33,19.80
2007,04,06,14,34,19.80
2007,04,06,14,35,19.80
2007,04,06,14,36,19.80
2007,04,06,14,37,19.70
2007,04,06,14,38,19.60
2007,04,06,14,39,19.60
2007,04,06,14,40,19.50
2007,04,06,14,41,19.50
2007,04,06,14,42,19.40
2007,04,06,14,43,19.40
2007,04,06,14,44,19.40
2007,04,06,14,45,19.50
2007,04,06,14,46,19.50
2007,04,06,14,47,19.60
2007,04,06,14,48,19.60
2007,04,06,14,49,19.70
2007,04,06,14,50,19.70
2007,04,06,14,51,19.70
2007,04,06,14,52,19.70
2007,04,06,14,53,19.70
2007,04,06,14,54,19.70
2007,04,06,14,55,19.60
2007,04,06,14,56,19.60
2007,04,06,14,57,19.60
2007,04,06,14,58,19.60
2007,04,06,14,59,19.60
2007,04,06,15,00,19.60
2007,04,06,15,01,19.60
2007,04,06,15,02,19.60
2007,04,06,15,03,19.70
2007,04,06,15,04,19.80
2007,04,06,15,05,19.90
2007,04,06,15,06,19.80
2007,04,06,15,07,19.80
2007,04,06,15,08,19.80
2007,04,06,15,09,19.90
2007,04,06,15,10,19.90
2007,04,06,15,11,19.80
2007,04,06,15,12,19.80
2007,04,06,15,13,19.80
2007,04,06,15,14,19.80
2007,04,06,15,15,19.80
2007,04,06,15,16,19.90
2007,04,06,15,17,19.90
2007,04,06,15,18,19.90
2007,04,06,15,19,19.90
2007,04,06,15,20,19.90
2007,04,06,15,21,19.90
2007,04,06,15,22,20.00
2007,04,06,15,23,20.10
2007,04,06,15,24,20.20
2007,04,06,15,25,20.30
2007,04,06,15,26,20.50
2007,04,06,15,27,20.70
2007,04,06,15,28,20.70
2007,04,06,15,29,20.70
2007,04,06,15,30,20.60
2007,04,06,15,31,20.50
2007,04,06,15,32,20.50
2007,04,06,15,33,20.50
2007,04,06,15,34,20.50
2007,04,06,15,35,20.50
2007,04,06,15,36,20.60
2007,04,06,15,37,20.60
2007,04,06,15,38,20.50
2007,04,06,15,39,20.50
2007,04,06,15,40,20.50
2007,04,06,15,41,20.50
2007,04,06,15,42,20.50
2007,04,06,15,43,20.50
2007,04,06,15,44,20.40
2007,04,06,15,45,20.40
2007,04,06,15,46,20.40
2007,04,06,15,47,20.50
2007,04,06,15,48,20.50
2007,04,06,15,49,20.50
2007,04,06,15,50,20.60
2007,04,06,15,51,20.60
2007,04,06,15,52,20.70
2007,04,06,15,53,20.60
2007,04,06,15,54,20.50
2007,04,06,15,55,20.50
2007,04,06,15,56,20.40
2007,04,06,15,57,20.40
2007,04,06,15,58,20.40
2007,04,06,15,59,20.50
2007,04,06,16,00,20.50
2007,04,06,16,01,20.50
2007,04,06,16,02,20.50
2007,04,06,16,03,20.50
2007,04,06,16,04,20.60
2007,04,06,16,05,20.50
2007,04,06,16,06,20.50
2007,04,06,16,07,20.50
2007,04,06,16,08,20.50
2007,04,06,16,09,20.50
2007,04,06,16,10,20.50
2007,04,06,16,11,20.50
2007,04,06,16,12,20.50
2007,04,06,16,13,20.50
2007,04,06,16,14,20.50
2007,04,06,16,15,20.50
2007,04,06,16,16,20.40
2007,04,06,16,17,20.40
2007,04,06,16,18,20.30
2007,04,06,16,19,20.30
2007,04,06,16,20,20.40
2007,04,06,16,21,20.40
2007,04,06,16,22,20.40
2007,04,06,16,23,20.40
2007,04,06,16,24,20.40
2007,04,06,16,25,20.30
2007,04,06,16,26,20.30
2007,04,06,16,27,20.30
2007,04,06,16,28,20.30
2007,04,06,16,29,20.30
2007,04,06,16,30,20.20
2007,04,06,16,31,20.30
2007,04,06,16,32,20.30
2007,04,06,16,33,20.30
2007,04,06,16,34,20.40
2007,04,06,16,35,20.40
2007,04,06,16,36,20.40
2007,04,06,16,37,20.40
2007,04,06,16,38,20.40
2007,04,06,16,39,20.30
2007,04,06,16,40,20.30
2007,04,06,16,41,20.30
2007,04,06,16,42,20.40
2007,04,06,16,43,20.40
2007,04,06,16,44,20.50
2007,04,06,16,45,20.50
2007,04,06,16,46,20.50
2007,04,06,16,47,20.50
2007,04,06,16,48,20.50
2007,04,06,16,49,20.60
2007,04,06,16,50,20.60
2007,04,06,16,51,20.60
2007,04,06,16,52,20.60
2007,04,06,16,53,20.60
2007,04,06,16,54,20.60
2007,04,06,16,55,20.60
2007,04,06,16,56,20.60
2007,04,06,16,57,20.70
2007,04,06,16,58,20.70
2007,04,06,16,59,20.70
2007,04,06,17,00,20.70
2007,04,06,17,01,20.80
2007,04,06,17,02,20.80
2007,04,06,17,03,20.80
2007,04,06,17,04,20.70
2007,04,06,17,05,20.80
2007,04,06,17,06,20.80
2007,04,06,17,07,20.80
2007,04,06,17,08,20.80
2007,04,06,17,09,20.70
2007,04,06,17,10,20.70
2007,04,06,17,11,20.70
2007,04,06,17,12,20.70
2007,04,06,17,13,20.60
2007,04,06,17,14,20.70
2007,04,06,17,15,20.70
2007,04,06,17,16,20.70
2007,04,06,17,17,20.70
2007,04,06,17,18,20.70
2007,04,06,17,19,20.70